Погода в Комарово

Россия / Тюменская область     57°06′33″N   65°30′48″E
темп.,
°C
ветер,
м/с
пор.,
м/с
влажн.,
%
обл.,
%
осадки,
мм/ч
давл.,
гПа
погр.,
м
17 июня, чт
чт1723:00+18ююз268332 0.2 1011104
02:00+17юз28826 0.3 1010158
05:00+17ююз377935 0.3 1009149
08:00+23ююз4554100 0.0 1007304
11:00+24юз41054100 0.0 1006666
14:00+30зюз51232100 0.0 10042518
17:00+27зюз51046100 0.0 10032086
20:00+17ссз4118498 0.3 1003376
18 июня, пт
пт1823:00+17с41195100 1.8 1004647
02:00+15ссв51092100 1.3 1005768
05:00+11с5138010 1.4 1008809
08:00+12с7115317 0.0 10101059
11:00+16с710355 0.0 10111789
14:00+18с7102711 0.0 10122335
17:00+18с6102755 0.0 10132904
20:00+16ссз384185 0.0 1014553
19 июня, сб
сб1923:00+11сз38527 0.0 1015187
02:00+9сз310665 0.0 1016224
05:00+8сз26695 0.0 1017118
08:00+15зсз354196 0.0 1017534
11:00+18зсз5635100 0.0 10162364
14:00+15з555473 0.0 10151067
17:00+16сз3555100 0.0 10141399
20:00+15зсз246697 0.0 1013181
20 июня, вс
вс2023:00+10зюз239297 0.0 101249
02:00+10зюз2595100 0.0 1011106
05:00+12зюз3894100 0.2 1009263
08:00+14з369583 0.3 1008386
11:00+21сз586241 0.8 10061474
14:00+20ссз7126519 2.1 10061721
17:00+21с813423 2.3 10082327
20:00+16с617495 0.0 10101994
21 июня, пн
пн2123:00+13с617516 0.0 10111471
02:00+11ссз6136495 0.0 10121179
05:00+11ссз6116492 0.0 1014966
08:00+14ссз6106229 0.0 1015930
11:00+19ссз711465 0.0 10151879
14:00+18ссз61148100 0.0 10162169
17:00+19с5114123 0.0 10162481
20:00+17с485115 0.0 1017838